INMARSAT 3-F2 1 24307U 96053A 23340.98313559 -.00000012 00000-0 00000+0 0 9997 2 24307 7.7434 62.6490 0004014 174.6227 195.5715 1.00000687 99720 ARTEMIS 1 26863U 01029A 23340.80744700 -.00000002 00000-0 00000-0 0 9992 2 26863 14.2937 13.3213 0014559 154.8758 38.1397 0.99293198 34680 ANIK F1-R 1 28868U 05036A 23340.67464858 -.00000051 00000-0 00000-0 0 9993 2 28868 1.9316 87.9205 0001400 148.9307 333.9239 1.00271911 37196 GALAXY 15 1 28884U 05041A 23341.10567392 .00000050 00000-0 00000+0 0 9990 2 28884 1.1269 85.2473 0014861 118.7464 168.8409 0.98938247 66324 INMARSAT 4-F2 1 28899U 05044A 23340.65280584 -.00000240 00000-0 00000-0 0 9996 2 28899 3.9816 41.5674 0002120 227.7684 184.1924 1.00271574 66269 HIMAWARI 7 1 28937U 06004A 23340.83085611 -.00000205 00000-0 00000-0 0 9991 2 28937 3.3909 83.9557 0008876 143.0647 105.1123 0.99077886 65071 INMARSAT 4-F3 1 33278U 08039A 23340.47748624 -.00000119 00000-0 00000-0 0 9999 2 33278 3.5742 25.5867 0003009 230.3685 252.9559 1.00271655 37282 QZS-1 (MICHIBIKI) 1 37158U 10045A 23340.75914769 .00000055 00000-0 00000-0 0 9994 2 37158 42.9995 126.6176 0003970 119.6790 60.7317 0.87715778 48292 GSAT 8 1 37605U 11022A 23340.85118764 .00000108 00000-0 00000-0 0 9998 2 37605 0.0460 120.0220 0008683 142.9697 173.8879 1.00272082 43959 LUCH 5A 1 37951U 11074B 23340.63382809 -.00000025 00000-0 00000-0 0 9997 2 37951 6.3844 88.1262 0003330 157.1725 225.0106 1.00269491 43797 SES 5 1 38652U 12036A 23341.12673344 .00000058 00000-0 00000+0 0 9991 2 38652 0.0340 316.5114 0002020 296.9650 232.7723 1.00270918 41813 GSAT 10 1 38779U 12051B 23340.78412321 -.00000142 00000-0 00000-0 0 9991 2 38779 0.0202 271.7565 0004879 348.4385 180.4178 1.00270962 40859 LUCH 5B 1 38977U 12061A 23340.20211620 -.00000117 00000-0 00000-0 0 9990 2 38977 8.4618 58.3633 0004450 162.4064 270.3639 1.00271154 40350 ASTRA 5B 1 39617U 14011B 23340.91552927 .00000161 00000-0 00000-0 0 9993 2 39617 0.0489 323.0652 0004420 298.7435 166.7097 1.00272392 35413 LUCH 5V 1 39727U 14023A 23340.85809424 -.00000246 00000-0 00000-0 0 9993 2 39727 2.8133 76.9628 0003960 197.0004 205.0419 1.00274924 35103 GSAT 15 1 41028U 15065A 23340.40466314 -.00000236 00000-0 00000-0 0 9994 2 41028 0.0208 274.2496 0002586 314.1488 85.7201 1.00271142 29531 QZS-2 1 42738U 17028A 23340.65036920 -.00000187 00000-0 00000-0 0 9992 2 42738 40.8887 256.5327 0760238 269.3445 283.9004 1.00287531 23873